STARLINK-32046, 60198

Orbit data source: Space-Track

STARLINK-32046, 60198 is a payload satellite in LEO that was launched on Wed, 03 Jul 2024 UTC via an FALCON 9 launch vehicle from the Air Force Eastern Test Range (AFETR). Payload-class satellites include a variety of spacecraft equipped with specific instruments for various scientific and technological missions. These include communications satellites like Starlink; space stations such as the ISS; scientific satellites like the Hubble; Earth observation satellites from companies like Planet Labs, Umbra, and HawkEye 360; GPS; miniature CubeSats for education and research; and military/defense satellites.

Loading next visibility...
Identifier
60198, 2024-124R
Orbit
LEO
Last TLE update
11 hours ago
Origin
Manufacturer
SpaceX/Seattle
Mission
Operational Commercial Communications
Bus & Motor
STARLINK V2M, Unknown motor
Mass
730 kg wet, ~700 kg dry
Launch date (UTC)
2024-07-03 (11 months ago)
Launch vehicle
FALCON 9
Launch site
Air Force Eastern Test Range (AFETR)
Object type
Payload
Rocket body
Debris
Shape & HBR
Box + 2 Pan, 29 m
Radar Cross Section
36.964 m², Large (>1 m²)

Expand to show TLE details & history

TLE from 11 hours ago
0 STARLINK-32046
1 60198U 24124R   25141.59224976  .00005315  00000-0  19168-3 0  9996
2 60198  53.1604 239.3025 0001328 108.6617 251.4528 15.30160255 50653
Epoch: 2025-05-21T14:12Z
TLE epoch observation values (Epoch: 2025-05-21T14:12:50.379Z)
Latitude
-0.00001°
Longitude
146.61863°
Altitude
476.523 km
Speed
7.629 km/s
True Right ascension
15h 57m 12s
True Declination
0° 00' 00"
Sunlit
Object was in full shadow at epoch
Visualization orbit readout
Latitude
10.36919°
Longitude
152.31878°
Altitude
475.577 km
Speed
7.63 km/s
Apparent Right ascension
18h 41m 51s
Apparent Declination
-18° 37' 35"
Sunlit
Object is in full shadow
Visualization observer readout
Local Sidereal Time
10:13:50
Azimuth
80.913° E
Elevation
-39.973°
Doppler factor
1
Orbital elements
Apogee altitude
476.5 km
Perigee altitude
474.68 km
Semi-major axis
6,853.727 km
Eccentricity
0.00013
Inclination
53.1604°
RAAN
239.3025°
Arg. of periapsis
108.6617°
True anomaly
Unknown
Mean anomaly
251.4528°
Eccentric anomaly
Unknown
Mean motion
3.82519 °/min
Orbital period
94.11 mins
BSTAR
0.00019168
Loading maneuver chart data...
Loading SW <> Apogee altitude chart data...
Loading historical data...
Loading historical data...
Loading historical data...
Loading historical data...
Loading historical data...
Loading historical data...
Loading historical data...

STARLINK-32046 Visibility forecast

Observer location: undefined°, undefined°

Span
Click to sort rows by Start time (UTC) header in descending order
Start Az.
Max El. time (UTC)
Max El. Az.
Max El.
End time (UTC)
End Az.
6 mins2025-05-22 09:12:35.965Z227.866° WSW2025-05-22 09:15:35.965Z58.723° ENE44.083°2025-05-22 09:18:35.965Z50.58° ENE
4 mins2025-05-22 14:09:35.965Z339.35° N2025-05-22 14:11:35.965Z12.734° NNE15.744°2025-05-22 14:13:35.965Z50.826° ENE
5 mins2025-05-22 15:48:35.965Z319.013° NNW2025-05-22 15:50:35.965Z69.601° E43.202°2025-05-22 15:53:35.965Z123.344° SE
|